Weather History for Lanai City, HI

Change the Weather History Date:

Monday, February 6, 2012

  Actual Average Record
Temperature  
Mean Temperature 67 °F -  
Max Temperature 75 °F 74 °F 82 °F (2002)
Min Temperature 59 °F 59 °F 39 °F (1997)
Cooling Degree Days 2    
Growing Degree Days 17 (Base 50)    
Moisture  
Dew Point 63 °F    
Average Humidity 88    
Maximum Humidity 94    
Minimum Humidity 64    
Precipitation  
Precipitation 0.07 in - - ()
Sea Level Pressure  
Sea Level Pressure 29.95 in    
Wind  
Wind Speed 5 mph (SW)    
Max Wind Speed 13 mph    
Max Gust Speed -    
Visibility 9 miles    
Events Rain    
Averages and records for this station are not official NWS values.
T = Trace of Precipitation, MM = Missing Value Source: NWS Daily Summary

Daily Weather History Graph

Daily Weather History Graph

Search for Another Location

Airport:

Trip Planner

Search our weather history database for the weather conditions in past years. The results will help you decide how hot, cold, wet, or windy it might be!

Date:

Astronomy

Feb. 06, 2012 Rise Set
Actual Time 7:02 AM HST 6:21 PM HST
Civil Twilight 6:39 AM HST 6:44 PM HST
Nautical Twilight 6:13 AM HST 7:10 PM HST
Astronomical Twilight 5:47 AM HST 7:36 PM HST
Moon 5:37 PM HST (2/6) 5:58 AM HST (2/6)
Length of Visible Light 12h 04m
Length of Day
11h 18m
Waxing Gibbous, 99% of the Moon is Illuminated
Feb 6
Waxing Gibbous
Feb 7
Full
Feb 14
Last Quarter
Feb 21
New
Feb 29
First Quarter

Hourly Weather History & Observations

Time (HST) Temp. Dew Point Humidity Pressure Visibility Wind Dir Wind Speed Gust Speed Precip Events Conditions
12:56 AM 63.9 °F 59.9 °F 87% 29.91 in 10.0 mi NE 5.8 mph - N/A   Clear
1:56 AM 61.9 °F 57.9 °F 87% 29.89 in 10.0 mi ENE 8.1 mph - N/A   Clear
2:56 AM 61.0 °F 57.9 °F 90% 29.88 in 10.0 mi East 3.5 mph - N/A   Clear
3:56 AM 61.9 °F 57.9 °F 87% 29.88 in 10.0 mi Calm Calm - N/A   Clear
4:56 AM 59.0 °F 55.9 °F 90% 29.89 in 10.0 mi Calm Calm - N/A   Scattered Clouds
5:56 AM 59.9 °F 56.8 °F 90% 29.91 in 10.0 mi East 5.8 mph - N/A   Clear
6:56 AM 59.9 °F 57.9 °F 93% 29.93 in 10.0 mi East 5.8 mph - N/A   Scattered Clouds
7:25 AM 62.6 °F 60.8 °F 94% 29.97 in 10.0 mi Calm Calm - N/A   Mostly Cloudy
7:56 AM 62.6 °F 60.8 °F 94% 29.98 in 2.5 mi Calm Calm - N/A Rain Light Rain
8:05 AM 62.6 °F 60.8 °F 94% 29.98 in 7.0 mi Calm Calm - 0.00 in Rain Light Rain
8:17 AM 62.6 °F 60.8 °F 94% 29.98 in 10.0 mi Calm Calm - 0.00 in   Scattered Clouds
8:56 AM 63.9 °F 61.9 °F 93% 29.96 in 10.0 mi Calm Calm - 0.00 in   Mostly Cloudy
9:40 AM 66.2 °F 64.4 °F 94% 30.00 in 10.0 mi Calm Calm - N/A   Scattered Clouds
9:56 AM 66.9 °F 64.9 °F 93% 29.96 in 10.0 mi Calm Calm - N/A   Scattered Clouds
10:05 AM 66.2 °F 64.4 °F 94% 30.00 in 10.0 mi Calm Calm - N/A   Mostly Cloudy
10:21 AM 68.0 °F 66.2 °F 94% 30.00 in 10.0 mi SSE 10.4 mph - N/A   Overcast
10:43 AM 71.6 °F 66.2 °F 83% 30.00 in 10.0 mi South 10.4 mph - N/A   Mostly Cloudy
10:56 AM 69.8 °F 64.4 °F 83% 30.00 in 10.0 mi South 9.2 mph - N/A   Overcast
11:56 AM 68.9 °F 64.9 °F 87% 29.94 in 10.0 mi SSW 9.2 mph - 0.00 in Rain Light Rain
12:44 PM 75.2 °F 64.4 °F 69% 29.97 in 10.0 mi SW 10.4 mph - 0.00 in   Mostly Cloudy
12:56 PM 74.8 °F 63.9 °F 69% 29.91 in 10.0 mi SSW 11.5 mph - 0.00 in   Scattered Clouds
1:56 PM 75.2 °F 62.6 °F 65% 29.94 in 10.0 mi WSW 10.4 mph - N/A   Mostly Cloudy
2:56 PM 73.9 °F 61.9 °F 66% 29.88 in 10.0 mi WSW 11.5 mph - N/A   Overcast
3:56 PM 75.9 °F 63.0 °F 64% 29.88 in 10.0 mi WSW 9.2 mph - N/A   Mostly Cloudy
4:11 PM 73.4 °F 62.6 °F 69% 29.93 in 10.0 mi SW 9.2 mph - N/A   Mostly Cloudy
4:32 PM 73.4 °F 62.6 °F 69% 29.93 in 10.0 mi WSW 9.2 mph - 0.00 in Rain Light Rain
4:48 PM 71.6 °F 64.4 °F 78% 29.93 in 10.0 mi WSW 9.2 mph - 0.00 in   Overcast
4:56 PM 73.4 °F 64.4 °F 73% 29.93 in 10.0 mi SW 9.2 mph - N/A   Overcast
5:23 PM 69.8 °F 64.4 °F 83% 29.94 in 2.5 mi SW 12.7 mph - 0.01 in Rain Rain
5:28 PM 69.8 °F 64.4 °F 83% 29.94 in 1.2 mi SW 12.7 mph - 0.03 in Rain Rain
5:39 PM 66.2 °F 64.4 °F 94% 29.94 in 1.5 mi SW 10.4 mph - 0.06 in Rain Light Rain
5:42 PM 66.2 °F 64.4 °F 94% 29.94 in 1.2 mi SW 9.2 mph - 0.06 in Rain Light Rain
5:56 PM 66.9 °F 63.9 °F 90% 29.91 in 3.0 mi SW 6.9 mph - 0.07 in Rain Light Rain
6:06 PM 66.2 °F 64.4 °F 94% 29.94 in 10.0 mi WSW 6.9 mph - 0.00 in   Overcast
6:16 PM 66.2 °F 64.4 °F 94% 29.94 in 5.0 mi SW 6.9 mph - 0.00 in Rain Light Rain
6:56 PM 66.9 °F 63.9 °F 90% 29.92 in 10.0 mi Calm Calm - 0.00 in   Mostly Cloudy
7:26 PM 66.2 °F 64.4 °F 94% 29.96 in 10.0 mi Calm Calm - N/A   Overcast
7:56 PM 66.2 °F 64.4 °F 94% 29.96 in 10.0 mi WSW 6.9 mph - N/A   Mostly Cloudy
8:28 PM 66.2 °F 64.4 °F 94% 29.97 in 10.0 mi Calm Calm - N/A   Overcast
8:37 PM 66.2 °F 64.4 °F 94% 29.98 in 10.0 mi WSW 5.8 mph - N/A   Mostly Cloudy
8:56 PM 66.9 °F 64.9 °F 93% 29.94 in 10.0 mi WSW 6.9 mph - N/A   Mostly Cloudy
9:22 PM 66.2 °F 64.4 °F 94% 29.99 in 8.0 mi WSW 6.9 mph - 0.00 in Rain Light Rain
9:26 PM 66.2 °F 64.4 °F 94% 29.98 in 9.0 mi SW 5.8 mph - 0.00 in Rain Light Rain
9:44 PM 66.2 °F 64.4 °F 94% 29.99 in 10.0 mi WSW 6.9 mph - 0.00 in   Mostly Cloudy
9:56 PM 66.9 °F 64.9 °F 93% 29.94 in 10.0 mi Calm Calm - 0.00 in   Mostly Cloudy
10:14 PM 66.2 °F 64.4 °F 94% 29.98 in 10.0 mi SW 4.6 mph - N/A   Mostly Cloudy
10:56 PM 66.2 °F 64.4 °F 94% 29.98 in 10.0 mi WSW 11.5 mph - N/A Rain Light Rain
11:19 PM 66.2 °F 64.4 °F 94% 29.98 in 10.0 mi SW 8.1 mph - 0.00 in   Mostly Cloudy
11:28 PM 66.2 °F 64.4 °F 94% 29.98 in 10.0 mi SW 8.1 mph - 0.00 in   Overcast
11:56 PM 68.0 °F 65.8 °F 93% 29.93 in 10.0 mi WSW 12.7 mph - 0.00 in   Overcast